Flag for U.S.A. Weather past 2 weeks in Palestine, Texas, U.S.A.

Now
49 °F

Overcast.


Feels Like: 48 °F
Forecast: 44 / 58 °F
Wind: 5 mph from Northeast

Location: Palestine Municipal Airport

Current Time: Dec 20, 2014 at 7:38:00 PM

Latest Report: Dec 20, 2014 at 7:15 PM


Visibility: 7 mi

Pressure: 30.21 "Hg

Humidity: 82%

Dew point: 44 °F

Location of PalestineLocation

Historic Weather in Palestine — Graph

°F

Palestine temperature yesterday

Maximum temperature yesterday: 52 °F (at 12:55 PM)
Minimum temperature yesterday: 47 °F (at 9:55 PM)
Average temperature yesterday: 49 °F

Past Weeks' High & Low Weather Summary

 TemperatureHumidityPressure
High72 °F (Dec 14, 1:35 PM)100% (Dec 6, 12:15 AM)30.43 "Hg (Dec 6, 12:15 AM)
Low35 °F (Dec 17, 2:15 AM)31% (Dec 15, 1:35 PM)29.87 "Hg (Dec 14, 4:55 PM)
Average54 °F84%30.19 "Hg
* Reported Dec 5 6:15 PM — Dec 20 6:35 PM, Palestine, Weather by CustomWeather, © 2014

Note: Actual official high and low records may vary slightly from our data, if they occured in-between our weather recording intervals... More about our weather records

Advertising

Palestine weather history for previous 24 hours

 ConditionsComfort  
Time TempWeatherWind HumidityBarometerVisibility
6:35 PM
Dec 20
49 °FOvercast.No wind85%30.21 "Hg10 mi
6:15 PM48 °FOvercast.3 mph83%30.19 "Hg10 mi
5:55 PM49 °FOvercast.No wind82%30.19 "Hg10 mi
5:35 PM49 °FOvercast.6 mph83%30.19 "Hg10 mi
5:15 PM50 °FOvercast.3 mph82%30.20 "Hg10 mi
4:55 PM50 °FOvercast.No wind83%30.19 "Hg10 mi
4:35 PM51 °FOvercast.5 mph82%30.19 "Hg10 mi
4:15 PM51 °FOvercast.5 mph81%30.19 "Hg10 mi
3:35 PM51 °FOvercast.3 mph80%30.19 "Hg10 mi
3:15 PM52 °FOvercast.6 mph79%30.19 "Hg10 mi
2:55 PM52 °FOvercast.5 mph80%30.20 "Hg10 mi
2:35 PM51 °FOvercast.5 mph81%30.20 "Hg10 mi
2:15 PM51 °FOvercast.5 mph82%30.20 "Hg10 mi
1:55 PM51 °FMostly cloudy.5 mph85%30.20 "Hg10 mi
1:15 PM50 °FLow clouds.No wind86%30.23 "Hg10 mi
12:55 PM49 °FLow clouds.5 mph89%30.23 "Hg10 mi
12:15 PM49 °FLow clouds.3 mph90%30.25 "Hg10 mi
11:55 AM49 °FLow clouds.No wind90%30.25 "Hg10 mi
11:10 AM49 °FLow clouds.5 mph90%30.27 "Hg10 mi
11:00 AM49 °FLow clouds.5 mph91%30.27 "Hg10 mi
10:35 AM48 °FLow clouds.7 mph91%30.26 "Hg10 mi
10:20 AM49 °FLow clouds.7 mph91%30.26 "Hg10 mi
9:55 AM48 °FLow clouds.7 mph94%30.25 "Hg10 mi
9:35 AM48 °FLow clouds.8 mph94%30.25 "Hg7 mi
9:15 AM48 °FLow clouds.6 mph95%30.24 "Hg7 mi
9:00 AM48 °FLow clouds.7 mph95%30.24 "Hg7 mi
8:35 AM47 °FLow clouds.5 mph95%30.24 "Hg7 mi
8:15 AM47 °FLow clouds.3 mph96%30.24 "Hg7 mi
7:55 AM47 °FLow clouds.5 mph95%30.23 "Hg7 mi
7:15 AM47 °FFog.7 mph97%30.23 "Hg5 mi
6:55 AM48 °FFog.7 mph97%30.23 "Hg4 mi
6:15 AM48 °FFog.5 mph97%30.22 "Hg5 mi
5:55 AM48 °FFog.5 mph97%30.22 "Hg5 mi
5:15 AM48 °FFog.No wind97%30.20 "Hg5 mi
4:55 AM48 °FMostly cloudy.No wind97%30.20 "Hg7 mi
4:35 AM47 °FMostly cloudy.No wind97%30.20 "Hg7 mi
4:15 AM47 °FMostly cloudy.3 mph97%30.19 "Hg7 mi
3:55 AM48 °FMostly cloudy.5 mph97%30.20 "Hg7 mi
3:35 AM47 °FMostly cloudy.3 mph97%30.19 "Hg7 mi
3:15 AM47 °FLow clouds.5 mph97%30.20 "Hg7 mi
2:55 AM47 °FMostly cloudy.5 mph97%30.20 "Hg7 mi
2:35 AM48 °FLow clouds.5 mph97%30.20 "Hg7 mi
2:15 AM47 °FFog.3 mph97%30.20 "Hg5 mi
1:55 AM47 °FFog.No wind97%30.20 "Hg5 mi
1:35 AM47 °FFog.3 mph97%30.20 "Hg5 mi
1:15 AM47 °FLow clouds.5 mph97%30.19 "Hg7 mi
12:55 AM47 °FFog.7 mph97%30.20 "Hg5 mi
12:35 AM47 °FFog.7 mph97%30.20 "Hg5 mi
12:15 AM47 °FFog.6 mph98%30.21 "Hg5 mi
11:55 PM
Dec 19
47 °FFog.7 mph97%30.21 "Hg5 mi
11:35 PM47 °FFog.7 mph98%30.21 "Hg5 mi
11:15 PM47 °FFog.6 mph98%30.20 "Hg5 mi
10:55 PM47 °FFog.6 mph100%30.20 "Hg5 mi
10:35 PM47 °FFog.5 mph100%30.20 "Hg4 mi
10:15 PM47 °FFog.9 mph100%30.20 "Hg3 mi
9:55 PM47 °FFog.5 mph100%30.20 "Hg2 mi
9:35 PM47 °FFog.7 mph100%30.20 "Hg2 mi
8:55 PM48 °FFog.5 mph100%30.19 "Hg3 mi
8:35 PM48 °FFog.6 mph99%30.18 "Hg3 mi
8:15 PM48 °FFog.7 mph99%30.18 "Hg4 mi
7:55 PM48 °FFog.7 mph100%30.18 "Hg3 mi
7:35 PM48 °FFog.6 mph100%30.18 "Hg2 mi
7:15 PM48 °FFog.6 mph100%30.16 "Hg3 mi
Weather by CustomWeather, © 2014

See weather overviewHow to use our weather pages